,,,PA_Meas_PMT16A,,PR_Meas_QMR101_102,,RH_Meas_QMH101,,SR_Meas_QMS101,,TA_Meas_QMH101,,GenWind,,GenWind,
date,time,status,PA,status,PR,status,RH,status,SR,status,TA,status,DirAvg,status,SpdAvg,
2011-02-15, 00:00:04,VALID,1008.57,VALID,0,VALID,103.474,VALID,0,VALID,24.6684,VALID,14,VALID,0,
2011-02-15, 00:01:04,VALID,1008.58,VALID,0,VALID,103.489,VALID,0,VALID,24.6879,VALID,14,VALID,0,
2011-02-15, 00:02:04,VALID,1008.57,VALID,0,VALID,103.512,VALID,0,VALID,24.6666,VALID,14,VALID,0,
2011-02-15, 00:03:04,VALID,1008.6,VALID,0,VALID,103.542,VALID,0,VALID,24.7074,VALID,14,VALID,0,
2011-02-15, 00:04:04,VALID,1008.61,VALID,0,VALID,103.542,VALID,0,VALID,24.7269,VALID,14,VALID,0,
2011-02-15, 00:05:04,VALID,1008.63,VALID,0,VALID,103.542,VALID,0,VALID,24.7269,VALID,14,VALID,0,
2011-02-15, 00:06:04,VALID,1008.66,VALID,0,VALID,103.512,VALID,0,VALID,24.7269,VALID,14,VALID,0,
2011-02-15, 00:07:04,VALID,1008.66,VALID,0,VALID,103.497,VALID,0,VALID,24.7464,VALID,14,VALID,0,
2011-02-15, 00:08:04,VALID,1008.68,VALID,0,VALID,103.443,VALID,0,VALID,24.7464,VALID,14,VALID,0,
2011-02-15, 00:09:04,VALID,1008.68,VALID,0,VALID,103.42,VALID,0,VALID,24.7464,VALID,14,VALID,0,
2011-02-15, 00:10:04,VALID,1008.67,VALID,0,VALID,103.413,VALID,0,VALID,24.7464,VALID,14,VALID,0,
2011-02-15, 00:11:04,VALID,1008.66,VALID,0,VALID,103.436,VALID,0,VALID,24.7464,VALID,14,VALID,0,
2011-02-15, 00:12:04,VALID,1008.65,VALID,0,VALID,103.428,VALID,0,VALID,24.7464,VALID,14,VALID,0,
2011-02-15, 00:13:04,VALID,1008.62,VALID,0,VALID,103.428,VALID,0,VALID,24.725,VALID,14,VALID,0,
2011-02-15, 00:14:04,VALID,1008.65,VALID,0,VALID,103.436,VALID,0,VALID,24.7445,VALID,14,VALID,0,
2011-02-15, 00:15:04,VALID,1008.59,VALID,0,VALID,103.405,VALID,0,VALID,24.7854,VALID,14,VALID,0,
2011-02-15, 00:16:04,VALID,1008.58,VALID,0,VALID,103.405,VALID,0,VALID,24.764,VALID,14,VALID,0,
2011-02-15, 00:17:04,VALID,1008.57,VALID,0,VALID,103.329,VALID,0,VALID,24.7854,VALID,14,VALID,0,
2011-02-15, 00:18:04,VALID,1008.53,VALID,0,VALID,103.291,VALID,0,VALID,24.7854,VALID,14,VALID,0,
2011-02-15, 00:19:04,VALID,1008.51,VALID,0,VALID,103.207,VALID,0,VALID,24.764,VALID,14,VALID,0,
2011-02-15, 00:20:04,VALID,1008.49,VALID,0,VALID,103.192,VALID,0,VALID,24.7659,VALID,14,VALID,0,
2011-02-15, 00:21:04,VALID,1008.47,VALID,0,VALID,103.207,VALID,0,VALID,24.7445,VALID,14,VALID,0,
2011-02-15, 00:22:04,VALID,1008.47,VALID,0,VALID,103.215,VALID,0.105969,VALID,24.7445,VALID,14,VALID,0,
2011-02-15, 00:23:04,VALID,1008.48,VALID,0,VALID,103.23,VALID,0,VALID,24.7445,VALID,14,VALID,0,
2011-02-15, 00:24:04,VALID,1008.44,VALID,0,VALID,103.283,VALID,0,VALID,24.725,VALID,14,VALID,0,
2011-02-15, 00:25:04,VALID,1008.46,VALID,0,VALID,103.291,VALID,0.105969,VALID,24.725,VALID,14,VALID,0.0492188,
2011-02-15, 00:26:04,VALID,1008.46,VALID,0,VALID,103.291,VALID,0,VALID,24.725,VALID,14,VALID,0.311328,
2011-02-15, 00:27:04,VALID,1008.46,VALID,0,VALID,103.306,VALID,0,VALID,24.7055,VALID,14,VALID,0.349609,
2011-02-15, 00:28:04,VALID,1008.44,VALID,0,VALID,103.306,VALID,0,VALID,24.686,VALID,14,VALID,0.349219,
2011-02-15, 00:29:04,VALID,1008.4,VALID,0,VALID,103.321,VALID,0,VALID,24.686,VALID,359,VALID,0.504297,
2011-02-15, 00:30:04,VALID,1008.38,VALID,0,VALID,103.337,VALID,0.105969,VALID,24.686,VALID,359,VALID,0.125781,
2011-02-15, 00:31:04,VALID,1008.37,VALID,0,VALID,103.344,VALID,0,VALID,24.686,VALID,359,VALID,0.0921875,
2011-02-15, 00:32:04,VALID,1008.38,VALID,0,VALID,103.344,VALID,0.105969,VALID,24.686,VALID,359,VALID,0.367969,
2011-02-15, 00:33:04,VALID,1008.38,VALID,0,VALID,103.344,VALID,0.105969,VALID,24.6666,VALID,359,VALID,0.179297,
2011-02-15, 00:34:04,VALID,1008.4,VALID,0,VALID,103.344,VALID,0.105969,VALID,24.6666,VALID,359,VALID,0.273828,
2011-02-15, 00:35:04,VALID,1008.37,VALID,0,VALID,103.367,VALID,0,VALID,24.6471,VALID,359,VALID,0.253125,
2011-02-15, 00:36:04,VALID,1008.36,VALID,0,VALID,103.344,VALID,0,VALID,24.6276,VALID,359,VALID,0.300781,
2011-02-15, 00:37:04,VALID,1008.39,VALID,0,VALID,103.329,VALID,0,VALID,24.6489,VALID,359,VALID,0.425391,
2011-02-15, 00:38:04,VALID,1008.37,VALID,0,VALID,103.321,VALID,0.105969,VALID,24.6276,VALID,359,VALID,0.385156,
2011-02-15, 00:39:04,VALID,1008.4,VALID,0,VALID,103.359,VALID,0.105969,VALID,24.6081,VALID,359,VALID,0.396094,
2011-02-15, 00:40:04,VALID,1008.44,VALID,0,VALID,103.367,VALID,0,VALID,24.6081,VALID,359,VALID,0.302734,
2011-02-15, 00:41:04,VALID,1008.43,VALID,0,VALID,103.367,VALID,0,VALID,24.6081,VALID,359,VALID,0.207813,
2011-02-15, 00:42:04,VALID,1008.44,VALID,0,VALID,103.405,VALID,0,VALID,24.6081,VALID,359,VALID,0.232422,
2011-02-15, 00:43:04,VALID,1008.47,VALID,0,VALID,103.443,VALID,0.105969,VALID,24.6081,VALID,359,VALID,0,
2011-02-15, 00:44:04,VALID,1008.48,VALID,0,VALID,103.542,VALID,0.105969,VALID,24.6471,VALID,359,VALID,0,
2011-02-15, 00:45:04,VALID,1008.46,VALID,0,VALID,103.596,VALID,0,VALID,24.6489,VALID,359,VALID,0,
2011-02-15, 00:46:04,VALID,1008.47,VALID,0,VALID,103.649,VALID,0,VALID,24.6489,VALID,359,VALID,0,
2011-02-15, 00:47:04,VALID,1008.48,VALID,0,VALID,103.657,VALID,0,VALID,24.6294,VALID,359,VALID,0,
2011-02-15, 00:48:04,VALID,1008.48,VALID,0,VALID,103.664,VALID,0,VALID,24.6294,VALID,359,VALID,0,
2011-02-15, 00:49:04,VALID,1008.49,VALID,0,VALID,103.664,VALID,0,VALID,24.6294,VALID,359,VALID,0,
2011-02-15, 00:50:04,VALID,1008.5,VALID,0,VALID,103.619,VALID,0,VALID,24.6508,VALID,359,VALID,0,
2011-02-15, 00:51:04,VALID,1008.49,VALID,0,VALID,103.649,VALID,0,VALID,24.6294,VALID,359,VALID,0,
2011-02-15, 00:52:04,VALID,1008.48,VALID,0,VALID,103.68,VALID,0,VALID,24.6489,VALID,359,VALID,0,
2011-02-15, 00:53:04,VALID,1008.46,VALID,0,VALID,103.642,VALID,0,VALID,24.6294,VALID,359,VALID,0,
2011-02-15, 00:54:04,VALID,1008.43,VALID,0,VALID,103.596,VALID,0,VALID,24.6294,VALID,359,VALID,0,
2011-02-15, 00:55:04,VALID,1008.41,VALID,0,VALID,103.573,VALID,0,VALID,24.6294,VALID,359,VALID,0,
2011-02-15, 00:56:04,VALID,1008.41,VALID,0,VALID,103.542,VALID,0,VALID,24.6508,VALID,359,VALID,0,
2011-02-15, 00:57:04,VALID,1008.41,VALID,0,VALID,103.504,VALID,0,VALID,24.6294,VALID,359,VALID,0,
2011-02-15, 00:58:04,VALID,1008.41,VALID,0,VALID,103.481,VALID,0,VALID,24.6703,VALID,359,VALID,0,
2011-02-15, 00:59:04,VALID,1008.38,VALID,0,VALID,103.474,VALID,0,VALID,24.6294,VALID,359,VALID,0,
2011-02-15, 01:00:04,VALID,1008.36,VALID,0,VALID,103.466,VALID,0.105969,VALID,24.6489,VALID,359,VALID,0.433984,
2011-02-15, 01:01:04,VALID,1008.4,VALID,0,VALID,103.451,VALID,0,VALID,24.6081,VALID,359,VALID,0.424219,
2011-02-15, 01:02:04,VALID,1008.37,VALID,0,VALID,103.497,VALID,0,VALID,24.6489,VALID,359,VALID,0.482031,
2011-02-15, 01:03:04,VALID,1008.38,VALID,0,VALID,103.497,VALID,0,VALID,24.6081,VALID,13,VALID,0.559375,
2011-02-15, 01:04:04,VALID,1008.36,VALID,0,VALID,103.512,VALID,0,VALID,24.6081,VALID,13,VALID,0.535156,
2011-02-15, 01:05:04,VALID,1008.36,VALID,0,VALID,103.527,VALID,0,VALID,24.6081,VALID,13,VALID,0.488672,
2011-02-15, 01:06:04,VALID,1008.33,VALID,0,VALID,103.512,VALID,0,VALID,24.5886,VALID,13,VALID,0.323438,
2011-02-15, 01:07:04,VALID,1008.33,VALID,0,VALID,103.474,VALID,0,VALID,24.5886,VALID,13,VALID,0.250391,
2011-02-15, 01:08:04,VALID,1008.3,VALID,0,VALID,103.451,VALID,0,VALID,24.5905,VALID,13,VALID,0.469141,
2011-02-15, 01:09:04,VALID,1008.31,VALID,0,VALID,103.428,VALID,0,VALID,24.5691,VALID,13,VALID,0.160938,
2011-02-15, 01:10:04,VALID,1008.31,VALID,0,VALID,103.398,VALID,0,VALID,24.5691,VALID,13,VALID,0,
2011-02-15, 01:11:04,VALID,1008.26,VALID,0,VALID,103.39,VALID,0,VALID,24.5691,VALID,13,VALID,0,
2011-02-15, 01:12:04,VALID,1008.25,VALID,0,VALID,103.428,VALID,0.105969,VALID,24.5691,VALID,13,VALID,0,
2011-02-15, 01:13:04,VALID,1008.23,VALID,0,VALID,103.436,VALID,0.105969,VALID,24.5691,VALID,13,VALID,0,
2011-02-15, 01:14:04,VALID,1008.23,VALID,0,VALID,103.367,VALID,0,VALID,24.5691,VALID,13,VALID,0,
2011-02-15, 01:15:04,VALID,1008.22,VALID,0,VALID,103.359,VALID,0,VALID,24.5691,VALID,13,VALID,0,
2011-02-15, 01:16:04,VALID,1008.21,VALID,0,VALID,103.39,VALID,0.105969,VALID,24.5886,VALID,13,VALID,0,
2011-02-15, 01:17:04,VALID,1008.21,VALID,0,VALID,103.398,VALID,0,VALID,24.5691,VALID,13,VALID,0,
2011-02-15, 01:18:04,VALID,1008.21,VALID,0,VALID,103.283,VALID,0,VALID,24.5691,VALID,13,VALID,0,
2011-02-15, 01:19:04,VALID,1008.21,VALID,0,VALID,103.1,VALID,0,VALID,24.5496,VALID,13,VALID,0,
2011-02-15, 01:20:04,VALID,1008.16,VALID,0,VALID,102.971,VALID,0,VALID,24.5496,VALID,13,VALID,0.0523437,
2011-02-15, 01:21:04,VALID,1008.17,VALID,0,VALID,102.772,VALID,0,VALID,24.5301,VALID,13,VALID,0.126563,
2011-02-15, 01:22:04,VALID,1008.18,VALID,0,VALID,102.673,VALID,0,VALID,24.5301,VALID,13,VALID,0,
2011-02-15, 01:23:04,VALID,1008.16,VALID,0,VALID,102.574,VALID,0,VALID,24.5515,VALID,13,VALID,0,
2011-02-15, 01:24:04,VALID,1008.12,VALID,0,VALID,102.482,VALID,0,VALID,24.532,VALID,13,VALID,0,
2011-02-15, 01:25:04,VALID,1008.11,VALID,0,VALID,102.444,VALID,0,VALID,24.532,VALID,13,VALID,0,
2011-02-15, 01:26:04,VALID,1008.08,VALID,0,VALID,102.437,VALID,0,VALID,24.4911,VALID,13,VALID,0,
2011-02-15, 01:27:04,VALID,1008.1,VALID,0,VALID,102.49,VALID,0,VALID,24.4911,VALID,13,VALID,0,
2011-02-15, 01:28:04,VALID,1008.09,VALID,0,VALID,102.597,VALID,0,VALID,24.4911,VALID,13,VALID,0,
2011-02-15, 01:29:04,VALID,1008.1,VALID,0,VALID,102.643,VALID,0,VALID,24.4522,VALID,13,VALID,0.0210938,
2011-02-15, 01:30:04,VALID,1008.11,VALID,0,VALID,102.627,VALID,0,VALID,24.4522,VALID,13,VALID,0,
2011-02-15, 01:31:04,VALID,1008.11,VALID,0,VALID,102.711,VALID,0,VALID,24.4327,VALID,13,VALID,0,
2011-02-15, 01:32:04,VALID,1008.15,VALID,0,VALID,102.81,VALID,0,VALID,24.4327,VALID,13,VALID,0,
2011-02-15, 01:33:04,VALID,1008.12,VALID,0,VALID,102.864,VALID,0,VALID,24.3937,VALID,13,VALID,0,
2011-02-15, 01:34:04,VALID,1008.13,VALID,0,VALID,102.902,VALID,0.105969,VALID,24.3937,VALID,13,VALID,0,
2011-02-15, 01:35:04,VALID,1008.13,VALID,0,VALID,102.955,VALID,0,VALID,24.3956,VALID,13,VALID,0,
2011-02-15, 01:36:04,VALID,1008.12,VALID,0,VALID,102.993,VALID,0,VALID,24.3956,VALID,13,VALID,0,
2011-02-15, 01:37:04,VALID,1008.1,VALID,0,VALID,102.986,VALID,0.105969,VALID,24.3547,VALID,13,VALID,0,
2011-02-15, 01:38:04,VALID,1008.08,VALID,0,VALID,103.016,VALID,0,VALID,24.3566,VALID,13,VALID,0,
2011-02-15, 01:39:04,VALID,1008.06,VALID,0,VALID,102.986,VALID,0.105969,VALID,24.3352,VALID,13,VALID,0,
2011-02-15, 01:40:04,VALID,1008.04,VALID,0,VALID,102.94,VALID,0,VALID,24.3158,VALID,13,VALID,0,
2011-02-15, 01:41:04,VALID,1008.04,VALID,0,VALID,102.932,VALID,0,VALID,24.3158,VALID,13,VALID,0,
2011-02-15, 01:42:04,VALID,1008.03,VALID,0,VALID,102.925,VALID,0.105969,VALID,24.2963,VALID,13,VALID,0,
2011-02-15, 01:43:04,VALID,1008.01,VALID,0,VALID,102.925,VALID,0,VALID,24.2963,VALID,13,VALID,0,
2011-02-15, 01:44:04,VALID,1007.98,VALID,0,VALID,102.971,VALID,0,VALID,24.3176,VALID,13,VALID,0.0292969,
2011-02-15, 01:45:04,VALID,1007.99,VALID,0,VALID,102.955,VALID,0,VALID,24.2768,VALID,13,VALID,0.239063,
2011-02-15, 01:46:04,VALID,1007.99,VALID,0,VALID,103.016,VALID,0,VALID,24.2981,VALID,13,VALID,0.260938,
2011-02-15, 01:47:04,VALID,1007.97,VALID,0,VALID,103.024,VALID,0,VALID,24.2768,VALID,13,VALID,0.0480469,
2011-02-15, 01:48:04,VALID,1007.98,VALID,0,VALID,103.062,VALID,0,VALID,24.2573,VALID,13,VALID,0,
2011-02-15, 01:49:04,VALID,1007.98,VALID,0,VALID,103.062,VALID,0,VALID,24.2573,VALID,13,VALID,0,
2011-02-15, 01:50:04,VALID,1007.97,VALID,0,VALID,103.077,VALID,0,VALID,24.2591,VALID,13,VALID,0,
2011-02-15, 01:51:04,VALID,1007.98,VALID,0,VALID,103.1,VALID,0,VALID,24.2378,VALID,13,VALID,0,
2011-02-15, 01:52:04,VALID,1007.98,VALID,0,VALID,103.108,VALID,0.105969,VALID,24.2378,VALID,13,VALID,0,
2011-02-15, 01:53:04,VALID,1007.96,VALID,0,VALID,103.176,VALID,0,VALID,24.2591,VALID,13,VALID,0,
2011-02-15, 01:54:04,VALID,1007.98,VALID,0,VALID,103.222,VALID,0,VALID,24.2591,VALID,13,VALID,0,
2011-02-15, 01:55:04,VALID,1007.97,VALID,0,VALID,103.245,VALID,0,VALID,24.2378,VALID,13,VALID,0,
2011-02-15, 01:56:04,VALID,1007.95,VALID,0,VALID,103.26,VALID,0,VALID,24.2378,VALID,13,VALID,0,
2011-02-15, 01:57:04,VALID,1007.94,VALID,0,VALID,103.26,VALID,0,VALID,24.2378,VALID,13,VALID,0,
2011-02-15, 01:58:04,VALID,1007.93,VALID,0,VALID,103.291,VALID,0.105969,VALID,24.2378,VALID,13,VALID,0,
2011-02-15, 01:59:04,VALID,1007.91,VALID,0,VALID,103.359,VALID,0,VALID,24.2591,VALID,13,VALID,0,
2011-02-15, 02:00:04,VALID,1007.9,VALID,0,VALID,103.367,VALID,0,VALID,24.2378,VALID,13,VALID,0.347656,
2011-02-15, 02:01:04,VALID,1007.89,VALID,0,VALID,103.382,VALID,0.105969,VALID,24.2378,VALID,13,VALID,0.361328,
2011-02-15, 02:02:04,VALID,1007.88,VALID,0,VALID,103.413,VALID,0,VALID,24.2378,VALID,13,VALID,0.487109,
2011-02-15, 02:03:04,VALID,1007.85,VALID,0,VALID,103.428,VALID,0,VALID,24.2378,VALID,13,VALID,0.438672,
2011-02-15, 02:04:04,VALID,1007.85,VALID,0,VALID,103.459,VALID,0,VALID,24.2378,VALID,13,VALID,0.533984,
2011-02-15, 02:05:04,VALID,1007.83,VALID,0,VALID,103.481,VALID,0,VALID,24.2378,VALID,13,VALID,0.396484,
2011-02-15, 02:06:04,VALID,1007.84,VALID,0,VALID,103.504,VALID,0.105969,VALID,24.2573,VALID,13,VALID,0.4125,
2011-02-15, 02:07:04,VALID,1007.8,VALID,0,VALID,103.497,VALID,0.105969,VALID,24.2768,VALID,13,VALID,0.353906,
2011-02-15, 02:08:04,VALID,1007.82,VALID,0,VALID,103.466,VALID,0,VALID,24.2573,VALID,13,VALID,0.239844,
2011-02-15, 02:09:04,VALID,1007.79,VALID,0,VALID,103.413,VALID,0.105969,VALID,24.2573,VALID,13,VALID,0.219531,
2011-02-15, 02:10:04,VALID,1007.8,VALID,0,VALID,103.367,VALID,0,VALID,24.2573,VALID,13,VALID,0,
2011-02-15, 02:11:04,VALID,1007.8,VALID,0,VALID,103.375,VALID,0.105969,VALID,24.2768,VALID,13,VALID,0,
2011-02-15, 02:12:04,VALID,1007.75,VALID,0,VALID,103.375,VALID,0,VALID,24.2768,VALID,13,VALID,0,
2011-02-15, 02:13:04,VALID,1007.75,VALID,0,VALID,103.375,VALID,0,VALID,24.2573,VALID,13,VALID,0,
2011-02-15, 02:14:04,VALID,1007.73,VALID,0,VALID,103.367,VALID,0,VALID,24.2378,VALID,13,VALID,0,
2011-02-15, 02:15:04,VALID,1007.72,VALID,0,VALID,103.344,VALID,0,VALID,24.2396,VALID,13,VALID,0,
2011-02-15, 02:16:04,VALID,1007.69,VALID,0,VALID,103.344,VALID,0,VALID,24.2396,VALID,13,VALID,0,
2011-02-15, 02:17:04,VALID,1007.68,VALID,0,VALID,103.352,VALID,0,VALID,24.2396,VALID,13,VALID,0.146094,
2011-02-15, 02:18:04,VALID,1007.66,VALID,0,VALID,103.359,VALID,0,VALID,24.2396,VALID,13,VALID,0.197656,
2011-02-15, 02:19:04,VALID,1007.64,VALID,0,VALID,103.375,VALID,0,VALID,24.2007,VALID,13,VALID,0.350781,
2011-02-15, 02:20:04,VALID,1007.64,VALID,0,VALID,103.375,VALID,0,VALID,24.183,VALID,13,VALID,0.317969,
2011-02-15, 02:21:04,VALID,1007.63,VALID,0,VALID,103.382,VALID,0,VALID,24.183,VALID,13,VALID,0.370703,
2011-02-15, 02:22:04,VALID,1007.59,VALID,0,VALID,103.39,VALID,0,VALID,24.1422,VALID,13,VALID,0.367969,
2011-02-15, 02:23:04,VALID,1007.58,VALID,0,VALID,103.436,VALID,0,VALID,24.144,VALID,13,VALID,0.264844,
2011-02-15, 02:24:04,VALID,1007.55,VALID,0,VALID,103.489,VALID,0,VALID,24.1245,VALID,13,VALID,0.0625,
2011-02-15, 02:25:04,VALID,1007.56,VALID,0,VALID,103.535,VALID,0,VALID,24.0837,VALID,13,VALID,0,
2011-02-15, 02:26:04,VALID,1007.52,VALID,0,VALID,103.588,VALID,0,VALID,24.0856,VALID,13,VALID,0,
2011-02-15, 02:27:04,VALID,1007.48,VALID,0,VALID,103.649,VALID,0,VALID,24.0448,VALID,13,VALID,0,
2011-02-15, 02:28:04,VALID,1007.45,VALID,0,VALID,103.664,VALID,0,VALID,24.0643,VALID,13,VALID,0,
2011-02-15, 02:29:04,VALID,1007.42,VALID,0,VALID,103.71,VALID,0,VALID,24.0661,VALID,13,VALID,0,
2011-02-15, 02:30:04,VALID,1007.42,VALID,0,VALID,103.756,VALID,0,VALID,24.0643,VALID,13,VALID,0,
2011-02-15, 02:31:04,VALID,1007.37,VALID,0,VALID,103.794,VALID,0,VALID,24.0235,VALID,13,VALID,0,
2011-02-15, 02:32:04,VALID,1007.36,VALID,0,VALID,103.817,VALID,0,VALID,24.0235,VALID,13,VALID,0,
2011-02-15, 02:33:04,VALID,1007.34,VALID,0,VALID,103.84,VALID,0,VALID,24.004,VALID,13,VALID,0.145703,
2011-02-15, 02:34:04,VALID,1007.37,VALID,0,VALID,103.848,VALID,0,VALID,24.0253,VALID,13,VALID,0,
2011-02-15, 02:35:04,VALID,1007.36,VALID,0,VALID,103.87,VALID,0,VALID,24.004,VALID,13,VALID,0,
2011-02-15, 02:36:04,VALID,1007.39,VALID,0,VALID,103.878,VALID,0.105969,VALID,23.965,VALID,13,VALID,0,
2011-02-15, 02:37:04,VALID,1007.4,VALID,0,VALID,103.916,VALID,0,VALID,23.9845,VALID,13,VALID,0,
2011-02-15, 02:38:04,VALID,1007.42,VALID,0,VALID,103.977,VALID,0.105969,VALID,24.004,VALID,13,VALID,0,
2011-02-15, 02:39:04,VALID,1007.44,VALID,0,VALID,104,VALID,0.105969,VALID,24.0643,VALID,13,VALID,0.163281,
2011-02-15, 02:40:04,VALID,1007.44,VALID,0,VALID,104,VALID,0,VALID,24.0429,VALID,13,VALID,0,
2011-02-15, 02:41:04,VALID,1007.47,VALID,0,VALID,104,VALID,0,VALID,24.0643,VALID,13,VALID,0,
2011-02-15, 02:42:04,VALID,1007.45,VALID,0,VALID,104,VALID,0,VALID,24.0624,VALID,13,VALID,0.00117188,
2011-02-15, 02:43:04,VALID,1007.46,VALID,0,VALID,104,VALID,0.105969,VALID,24.0819,VALID,13,VALID,0.614844,
2011-02-15, 02:44:04,VALID,1007.45,VALID,0,VALID,104,VALID,0.105969,VALID,24.0819,VALID,35,VALID,0.653125,
2011-02-15, 02:45:04,VALID,1007.44,VALID,0,VALID,104,VALID,0.105969,VALID,24.1014,VALID,35,VALID,0.555078,
2011-02-15, 02:46:04,VALID,1007.46,VALID,0,VALID,104,VALID,0.105969,VALID,24.1014,VALID,35,VALID,0.434375,
2011-02-15, 02:47:04,VALID,1007.47,VALID,0,VALID,104,VALID,0,VALID,24.1014,VALID,35,VALID,0.294141,
2011-02-15, 02:48:04,VALID,1007.47,VALID,0,VALID,104,VALID,0.105969,VALID,24.1014,VALID,35,VALID,0.200781,
2011-02-15, 02:49:04,VALID,1007.47,VALID,0,VALID,104,VALID,0.105969,VALID,24.1209,VALID,35,VALID,0,
2011-02-15, 02:50:04,VALID,1007.48,VALID,0,VALID,103.992,VALID,0,VALID,24.1209,VALID,35,VALID,0,
2011-02-15, 02:51:04,VALID,1007.49,VALID,0,VALID,103.977,VALID,0.105969,VALID,24.1209,VALID,35,VALID,0,
2011-02-15, 02:52:04,VALID,1007.54,VALID,0,VALID,103.97,VALID,0.105969,VALID,24.1209,VALID,35,VALID,0,
2011-02-15, 02:53:04,VALID,1007.54,VALID,0,VALID,103.97,VALID,0.105969,VALID,24.1209,VALID,35,VALID,0,
2011-02-15, 02:54:04,VALID,1007.53,VALID,0,VALID,103.97,VALID,0.105969,VALID,24.1404,VALID,35,VALID,0.0628906,
2011-02-15, 02:55:04,VALID,1007.57,VALID,0,VALID,103.977,VALID,0,VALID,24.1599,VALID,35,VALID,0.0367187,
2011-02-15, 02:56:04,VALID,1007.6,VALID,0,VALID,104,VALID,0.105969,VALID,24.1793,VALID,35,VALID,0.139062,
2011-02-15, 02:57:04,VALID,1007.61,VALID,0,VALID,103.977,VALID,0.105969,VALID,24.2183,VALID,35,VALID,0,
2011-02-15, 02:58:04,VALID,1007.64,VALID,0,VALID,103.954,VALID,0,VALID,24.2183,VALID,35,VALID,0,
2011-02-15, 02:59:04,VALID,1007.63,VALID,0,VALID,103.947,VALID,0.105969,VALID,24.2183,VALID,35,VALID,0,
2011-02-15, 03:00:04,VALID,1007.67,VALID,0,VALID,103.901,VALID,0,VALID,24.2396,VALID,35,VALID,0,
2011-02-15, 03:01:04,VALID,1007.71,VALID,0,VALID,103.878,VALID,0.105969,VALID,24.2591,VALID,35,VALID,0,
2011-02-15, 03:02:04,VALID,1007.71,VALID,0,VALID,103.855,VALID,0,VALID,24.2573,VALID,35,VALID,0,
2011-02-15, 03:03:04,VALID,1007.76,VALID,0,VALID,103.84,VALID,0,VALID,24.2573,VALID,35,VALID,0.242578,
2011-02-15, 03:04:04,VALID,1007.78,VALID,0,VALID,103.748,VALID,0,VALID,24.2981,VALID,35,VALID,0.399219,
2011-02-15, 03:05:04,VALID,1007.8,VALID,0,VALID,103.703,VALID,0,VALID,24.3158,VALID,35,VALID,0.260547,
2011-02-15, 03:06:04,VALID,1007.81,VALID,0,VALID,103.642,VALID,0,VALID,24.3352,VALID,35,VALID,0.207031,
2011-02-15, 03:07:04,VALID,1007.83,VALID,0,VALID,103.55,VALID,0.105969,VALID,24.3352,VALID,35,VALID,0.157813,
2011-02-15, 03:08:04,VALID,1007.89,VALID,0,VALID,103.497,VALID,0.105969,VALID,24.3547,VALID,35,VALID,0.160547,
2011-02-15, 03:09:04,VALID,1007.89,VALID,0,VALID,103.451,VALID,0,VALID,24.3352,VALID,35,VALID,0.360547,
2011-02-15, 03:10:04,VALID,1007.92,VALID,0,VALID,103.42,VALID,0.105969,VALID,24.3352,VALID,35,VALID,0.303906,
2011-02-15, 03:11:04,VALID,1007.9,VALID,0,VALID,103.398,VALID,0.105969,VALID,24.3352,VALID,35,VALID,0.13125,
2011-02-15, 03:12:04,VALID,1007.9,VALID,0,VALID,103.42,VALID,0.105969,VALID,24.3352,VALID,35,VALID,0,
2011-02-15, 03:13:04,VALID,1007.88,VALID,0,VALID,103.42,VALID,0,VALID,24.3158,VALID,35,VALID,0,
2011-02-15, 03:14:04,VALID,1007.87,VALID,0,VALID,103.466,VALID,0.105969,VALID,24.3371,VALID,35,VALID,0,
2011-02-15, 03:15:04,VALID,1007.86,VALID,0,VALID,103.504,VALID,0.105969,VALID,24.3371,VALID,35,VALID,0,
2011-02-15, 03:16:04,VALID,1007.84,VALID,0,VALID,103.542,VALID,0,VALID,24.3566,VALID,35,VALID,0.108594,
2011-02-15, 03:17:04,VALID,1007.81,VALID,0,VALID,103.527,VALID,0,VALID,24.3566,VALID,35,VALID,0.105078,
2011-02-15, 03:18:04,VALID,1007.79,VALID,0,VALID,103.558,VALID,0,VALID,24.3371,VALID,35,VALID,0,
2011-02-15, 03:19:04,VALID,1007.77,VALID,0,VALID,103.55,VALID,0,VALID,24.3566,VALID,35,VALID,0.223828,
2011-02-15, 03:20:04,VALID,1007.79,VALID,0,VALID,103.535,VALID,0,VALID,24.3566,VALID,345,VALID,0.230859,
2011-02-15, 03:21:04,VALID,1007.77,VALID,0,VALID,103.512,VALID,0,VALID,24.3547,VALID,345,VALID,0,
2011-02-15, 03:22:04,VALID,1007.72,VALID,0,VALID,103.535,VALID,0,VALID,24.3566,VALID,345,VALID,0,
2011-02-15, 03:23:04,VALID,1007.73,VALID,0,VALID,103.558,VALID,0,VALID,24.3761,VALID,345,VALID,0,
2011-02-15, 03:24:04,VALID,1007.72,VALID,0,VALID,103.565,VALID,0,VALID,24.3956,VALID,345,VALID,0.322266,
2011-02-15, 03:25:04,VALID,1007.7,VALID,0,VALID,103.535,VALID,0,VALID,24.3761,VALID,359,VALID,0.537109,
2011-02-15, 03:26:04,VALID,1007.69,VALID,0,VALID,103.542,VALID,0,VALID,24.3761,VALID,5,VALID,0.364844,
2011-02-15, 03:27:04,VALID,1007.67,VALID,0,VALID,103.542,VALID,0,VALID,24.3956,VALID,5,VALID,0.255859,
2011-02-15, 03:28:04,VALID,1007.66,VALID,0,VALID,103.504,VALID,0,VALID,24.3761,VALID,5,VALID,0.239844,
2011-02-15, 03:29:04,VALID,1007.69,VALID,0,VALID,103.497,VALID,0,VALID,24.3956,VALID,5,VALID,0.166406,
2011-02-15, 03:30:04,VALID,1007.68,VALID,0,VALID,103.512,VALID,0,VALID,24.3742,VALID,5,VALID,0,
2011-02-15, 03:31:04,VALID,1007.72,VALID,0,VALID,103.535,VALID,0,VALID,24.3742,VALID,5,VALID,0,
2011-02-15, 03:32:04,VALID,1007.74,VALID,0,VALID,103.535,VALID,0,VALID,24.3956,VALID,5,VALID,0.0015625,
2011-02-15, 03:33:04,VALID,1007.78,VALID,0,VALID,103.55,VALID,0,VALID,24.415,VALID,5,VALID,0.291797,
2011-02-15, 03:34:04,VALID,1007.77,VALID,0,VALID,103.512,VALID,0,VALID,24.3742,VALID,5,VALID,0.204297,
2011-02-15, 03:35:04,VALID,1007.8,VALID,0,VALID,103.489,VALID,0,VALID,24.3937,VALID,5,VALID,0.308594,
2011-02-15, 03:36:04,VALID,1007.8,VALID,0,VALID,103.481,VALID,0,VALID,24.3937,VALID,5,VALID,0.00195313,
2011-02-15, 03:37:04,VALID,1007.81,VALID,0,VALID,103.443,VALID,0,VALID,24.415,VALID,5,VALID,0.237109,
2011-02-15, 03:38:04,VALID,1007.86,VALID,0,VALID,103.459,VALID,0,VALID,24.415,VALID,5,VALID,0,
2011-02-15, 03:39:04,VALID,1007.86,VALID,0,VALID,103.497,VALID,0.105969,VALID,24.4132,VALID,5,VALID,0.0304688,
2011-02-15, 03:40:04,VALID,1007.85,VALID,0,VALID,103.42,VALID,0.105969,VALID,24.3937,VALID,352,VALID,0.178125,
2011-02-15, 03:41:04,VALID,1007.87,VALID,0,VALID,103.398,VALID,0,VALID,24.3937,VALID,352,VALID,0.202734,
2011-02-15, 03:42:04,VALID,1007.87,VALID,0,VALID,103.344,VALID,0,VALID,24.3956,VALID,352,VALID,0,
2011-02-15, 03:43:04,VALID,1007.87,VALID,0,VALID,103.321,VALID,0,VALID,24.3956,VALID,352,VALID,0,
2011-02-15, 03:44:04,VALID,1007.86,VALID,0,VALID,103.321,VALID,0,VALID,24.3937,VALID,352,VALID,0,
2011-02-15, 03:45:04,VALID,1007.83,VALID,0,VALID,103.298,VALID,0,VALID,24.3937,VALID,352,VALID,0,
2011-02-15, 03:46:04,VALID,1007.84,VALID,0,VALID,103.298,VALID,0,VALID,24.4132,VALID,352,VALID,0,
2011-02-15, 03:47:04,VALID,1007.83,VALID,0,VALID,103.298,VALID,0,VALID,24.4132,VALID,352,VALID,0.203906,
2011-02-15, 03:48:04,VALID,1007.82,VALID,0,VALID,103.276,VALID,0,VALID,24.415,VALID,355,VALID,0.441016,
2011-02-15, 03:49:04,VALID,1007.83,VALID,0,VALID,103.23,VALID,0,VALID,24.415,VALID,355,VALID,0.420312,
2011-02-15, 03:50:04,VALID,1007.81,VALID,0,VALID,103.237,VALID,0,VALID,24.3742,VALID,28,VALID,0.578906,
2011-02-15, 03:51:04,VALID,1007.81,VALID,0,VALID,103.23,VALID,0,VALID,24.3956,VALID,28,VALID,0.546094,
2011-02-15, 03:52:04,VALID,1007.82,VALID,0,VALID,103.344,VALID,0,VALID,24.4345,VALID,28,VALID,0.378516,